Temp
7 6 6 5 5 5 5 5 5 5 5 4 4 4 4 4 4 4 4 3 3 3 4 3 4 4 4 4 4 4 4 4 4 4 4 3 3 3 3 3 3 4 3
6 6 6 5 4 4 4 4 4 4 4 4 4 4 4 4 3 4 3 3 3 3 3 3 3 3 3 3 3 4 4 4 4 4 3 3 3 3 3 3 3 3 3
6 6 5 5 4 4 4 4 4 4 4 4 3 3 3 3 3 3 3 3 3 3 3 2 3 3 3 3 3 3 3 3 3 3 3 3 3 3 3 3 3 3 3
6 5 5 5 4 4 4 4 4 4 4 3 3 3 3 3 3 2 2 2 2 2 3 2 2 2 2 3 2 2 3 3 3 3 2 2 2 2 2 2 2 2 2
4 4 4 4 4 4 3 3 4 3 3 3 3 3 2 1 1 1 1 1 2 2 2 2 2 2 2 2 2 2 2 2 2 2 2 2 1 2 2 2 2 2 2
4 4 2 3 3 2 3 3 3 3 2 2 2 1 1 0 1 1 0 -0 0 1 2 2 2 2 2 2 2 2 2 2 2 2 1 1 1 1 1 1 1 1 1
3 3 3 2 2 1 2 3 2 3 2 2 1 1 1 1 0 -1 -1 0 0 1 1 1 1 1 1 1 1 1 1 1 1 1 1 1 0 0 0 0 0 0 0
4 4 3 3 1 2 3 2 3 3 3 2 1 0 0 1 0 0 -0 -0 -0 1 1 1 1 1 1 1 1 1 1 0 0 0 0 0 0 -0 -0 0 0 -0 -0
5 4 3 2 0 2 2 1 1 2 2 2 2 1 1 1 1 1 1 -0 -0 0 1 1 1 0 0 1 1 0 -0 0 -0 -1 -1 -0 -0 -0 -1 -1 -1 -1 -1
4 3 2 2 2 1 1 1 1 2 2 2 2 1 1 1 1 1 1 0 -0 0 0 0 0 0 0 0 -0 -0 -1 -0 -1 -1 -1 -1 -1 -1 -2 -2 -2 -2 -2
2 1 2 1 1 0 -0 0 0 1 1 1 1 2 1 1 0 0 0 0 -1 -0 0 0 0 0 0 -0 -0 -1 -1 -1 -1 -1 -2 -2 -2 -2 -2 -3 -2 -2 -3
2 1 1 1 0 1 0 -0 0 1 1 1 1 1 1 1 1 1 0 -0 -0 0 0 0 -0 -0 -0 -0 -1 -1 -1 -1 -2 -2 -2 -2 -3 -3 -3 -3 -3 -3 -4
2 0 -0 1 0 -0 -0 0 -0 -0 0 1 1 1 1 1 0 0 0 -1 -0 -1 -0 -0 -1 -1 -1 -1 -1 -1 -1 -2 -2 -2 -3 -3 -3 -3 -4 -4 -4 -4 -4
-1 -1 -1 0 0 -0 -0 -1 0 -1 -1 1 1 0 0 0 -0 0 1 0 -1 -1 -1 -1 -0 -1 -1 -1 -2 -2 -2 -2 -3 -3 -3 -3 -4 -4 -4 -4 -5 -5 -5
-2 -2 -1 -1 -0 -0 -1 -0 -0 -1 -0 -1 -0 -1 0 -0 -0 -0 -0 -0 -1 -2 -1 -1 -1 -2 -1 -1 -2 -2 -2 -3 -3 -3 -4 -4 -4 -4 -5 -5 -5 -5 -5
-2 -2 -1 -2 -1 -0 0 -1 -0 -1 -1 -1 -1 -0 -1 -1 -1 -0 -1 -1 -1 -2 -2 -2 -2 -2 -2 -2 -2 -3 -3 -3 -4 -4 -4 -5 -5 -5 -5 -6 -6 -6 -6
-1 -3 -2 -2 -2 -2 -1 -0 -0 -1 -2 -0 -1 -1 -1 -2 -2 -2 -3 -3 -3 -3 -3 -3 -3 -4 -3 -3 -3 -3 -3 -4 -4 -4 -4 -5 -5 -6 -6 -6 -6 -6 -6
-4 -4 -4 -4 -3 -4 -3 -1 -1 -0 0 -1 -0 -1 -1 -1 -2 -2 -4 -4 -4 -4 -4 -4 -5 -5 -5 -4 -4 -4 -4 -5 -5 -5 -5 -5 -6 -6 -6 -6 -7 -7 -7
-3 -4 -4 -4 -4 -4 -4 -3 -3 -2 -2 -1 -1 -1 -1 -1 -2 -2 -2 -3 -5 -5 -5 -6 -6 -6 -6 -5 -6 -5 -4 -5 -5 -6 -6 -6 -6 -6 -7 -7 -7 -7 -8
-4 -4 -4 -4 -5 -5 -4 -5 -4 -4 -3 -3 -2 -3 -2 -2 -2 -2 -2 -3 -4 -7 -7 -7 -6 -6 -6 -6 -6 -5 -5 -5 -6 -6 -6 -6 -6 -7 -7 -7 -8 -8 -8
-4 -4 -5 -6 -5 -5 -5 -5 -5 -5 -4 -4 -2 -2 -2 -2 -2 -3 -3 -3 -4 -6 -7 -7 -7 -6 -6 -7 -5 -4 -5 -6 -6 -7 -7 -7 -7 -7 -8 -8 -8 -8 -8
-5 -6 -5 -6 -5 -5 -5 -5 -5 -5 -4 -4 -3 -3 -3 -3 -3 -3 -3 -4 -5 -6 -7 -7 -6 -6 -7 -6 -5 -5 -6 -6 -6 -7 -7 -7 -8 -8 -8 -8 -9 -9 -9
-6 -6 -6 -6 -6 -6 -6 -6 -5 -6 -5 -5 -4 -3 -3 -3 -3 -4 -4 -5 -6 -6 -7 -7 -6 -7 -7 -6 -6 -7 -6 -7 -8 -7 -7 -8 -8 -8 -9 -9 -9 -9 -10
-6 -8 -7 -6 -6 -6 -6 -6 -6 -5 -6 -5 -5 -5 -4 -4 -4 -4 -5 -6 -6 -7 -7 -7 -8 -7 -8 -8 -8 -8 -8 -8 -8 -8 -8 -8 -9 -9 -9 -10 -10 -10 -10
-8 -8 -8 -8 -7 -6 -6 -6 -6 -6 -5 -5 -6 -5 -5 -5 -5 -5 -6 -7 -7 -7 -7 -8 -8 -9 -9 -9 -8 -8 -8 -8 -8 -8 -9 -9 -9 -9 -10 -10 -10 -11 -11
-8 -8 -8 -7 -7 -7 -6 -6 -6 -6 -6 -5 -6 -6 -6 -6 -6 -6 -6 -7 -7 -7 -7 -9 -9 -9 -9 -8 -8 -8 -9 -9 -9 -9 -9 -9 -10 -10 -11 -11 -11 -11 -12
Height
3110 3111 3115 3118 3118 3118 3118 3119 3122 3126 3129 3132 3134 3136 3138 3140 3142 3144 3144 3145 3145 3147 3149 3150 3150 3152 3153 3154 3154 3154 3154 3153 3152 3151 3150 3149 3149 3149 3149 3148 3148 3148 3148
3103 3104 3106 3110 3112 3114 3113 3112 3116 3120 3124 3128 3131 3133 3134 3135 3137 3139 3141 3142 3143 3144 3145 3148 3148 3149 3151 3151 3151 3150 3151 3150 3150 3150 3149 3148 3147 3147 3147 3146 3146 3146 3145
3091 3095 3095 3100 3105 3105 3106 3105 3110 3114 3117 3121 3125 3128 3130 3130 3132 3134 3137 3138 3139 3140 3141 3144 3145 3147 3148 3147 3148 3148 3148 3148 3147 3147 3146 3146 3145 3145 3144 3143 3143 3143 3142
3080 3088 3091 3088 3093 3094 3097 3097 3102 3107 3111 3114 3118 3122 3124 3125 3126 3128 3131 3134 3135 3136 3138 3140 3142 3143 3145 3144 3145 3145 3145 3145 3145 3145 3144 3143 3142 3142 3141 3140 3140 3139 3139
3074 3080 3076 3081 3078 3082 3085 3090 3095 3100 3104 3107 3111 3114 3117 3120 3120 3122 3125 3127 3129 3131 3133 3135 3137 3139 3141 3142 3143 3143 3143 3142 3142 3142 3142 3141 3140 3140 3139 3138 3137 3136 3135
3069 3066 3056 3066 3064 3063 3074 3079 3086 3091 3096 3099 3103 3106 3111 3113 3114 3114 3117 3121 3123 3125 3128 3131 3133 3135 3136 3138 3139 3139 3140 3139 3139 3139 3138 3138 3137 3137 3136 3135 3134 3133 3132
3061 3059 3061 3036 3040 3050 3065 3071 3075 3081 3086 3089 3094 3097 3102 3105 3107 3107 3109 3113 3117 3119 3123 3126 3128 3130 3132 3134 3135 3135 3136 3136 3135 3136 3136 3135 3135 3135 3134 3133 3132 3130 3129
3053 3050 3050 3043 3038 3052 3052 3058 3064 3071 3074 3080 3084 3090 3093 3097 3099 3100 3104 3107 3109 3112 3117 3120 3123 3125 3127 3129 3131 3133 3133 3134 3133 3132 3132 3133 3133 3133 3131 3130 3130 3128 3127
3039 3040 3039 3040 3028 3044 3043 3050 3051 3058 3064 3068 3075 3080 3084 3086 3092 3096 3099 3102 3104 3107 3111 3114 3118 3120 3123 3124 3126 3128 3129 3128 3130 3130 3130 3130 3130 3130 3129 3127 3127 3126 3124
3031 3033 3034 3033 3037 3031 3029 3043 3047 3049 3057 3062 3066 3070 3077 3081 3084 3089 3092 3095 3098 3101 3105 3107 3111 3115 3117 3120 3121 3123 3124 3125 3126 3127 3127 3127 3127 3127 3126 3125 3123 3122 3121
3026 3024 3024 3025 3015 3030 3028 3034 3039 3038 3051 3055 3059 3062 3067 3073 3076 3080 3086 3089 3091 3095 3099 3102 3106 3110 3112 3115 3117 3119 3121 3122 3123 3124 3123 3123 3123 3123 3123 3121 3120 3120 3120
3017 3017 3018 3020 3018 3022 3024 3028 3031 3038 3046 3047 3053 3055 3060 3065 3070 3075 3080 3084 3085 3089 3093 3098 3101 3103 3107 3110 3112 3114 3115 3116 3118 3119 3119 3119 3119 3119 3119 3119 3117 3116 3116
3009 3011 3011 3010 3010 3015 3017 3019 3022 3026 3036 3042 3044 3048 3051 3057 3062 3068 3072 3075 3079 3084 3086 3090 3094 3096 3100 3103 3106 3109 3111 3111 3113 3115 3116 3117 3116 3116 3116 3116 3115 3114 3112
3000 2999 3005 3005 3005 3007 3010 3011 3012 3016 3015 3028 3023 3037 3046 3049 3053 3058 3063 3068 3071 3075 3079 3085 3087 3089 3093 3097 3101 3103 3105 3107 3108 3109 3110 3111 3111 3111 3111 3112 3112 3111 3109
2987 2991 2994 2998 3000 3001 3002 3005 3006 3009 3011 3020 3019 3021 3034 3040 3043 3047 3052 3058 3062 3067 3074 3079 3081 3084 3086 3090 3094 3097 3099 3101 3102 3103 3106 3107 3108 3108 3108 3108 3108 3107 3106
2974 2976 2979 2982 2988 2992 2996 2997 2998 3001 3004 3006 3012 3015 3017 3028 3029 3036 3042 3048 3053 3060 3066 3072 3076 3079 3081 3083 3087 3091 3094 3097 3098 3099 3101 3102 3103 3104 3104 3104 3104 3103 3101
2957 2961 2965 2968 2970 2975 2981 2988 2990 2992 2996 2999 3004 3008 3010 3011 3020 3022 3031 3037 3044 3050 3057 3062 3067 3070 3073 3077 3081 3085 3088 3091 3094 3095 3096 3098 3099 3100 3100 3101 3100 3098 3097
2946 2950 2953 2956 2958 2961 2965 2970 2976 2980 2986 2989 2995 2998 3003 3007 3012 3015 3020 3026 3037 3043 3049 3054 3058 3061 3066 3070 3075 3080 3082 3085 3089 3090 3091 3091 3094 3096 3097 3097 3097 3095 3092
2937 2939 2940 2943 2946 2948 2950 2956 2961 2968 2971 2978 2982 2987 2994 3000 3005 3007 3013 3018 3025 3032 3040 3045 3048 3052 3058 3063 3068 3073 3075 3079 3083 3085 3086 3087 3088 3090 3092 3092 3090 3091 3089
2923 2924 2926 2929 2931 2935 2938 2942 2947 2952 2957 2962 2970 2977 2982 2989 2996 3000 3004 3008 3013 3020 3029 3036 3040 3043 3049 3055 3062 3066 3070 3074 3077 3080 3081 3083 3083 3085 3086 3087 3087 3085 3084
2910 2910 2910 2913 2916 2919 2924 2929 2934 2939 2942 2948 2958 2965 2971 2977 2984 2990 2994 2999 3003 3009 3018 3025 3031 3035 3041 3048 3056 3059 3065 3068 3070 3074 3077 3078 3078 3079 3081 3082 3081 3079 3080
2896 2896 2897 2898 2901 2906 2912 2916 2920 2925 2927 2935 2943 2950 2957 2964 2973 2977 2983 2990 2996 3000 3009 3017 3023 3029 3036 3045 3052 3055 3059 3063 3066 3068 3071 3072 3074 3075 3074 3076 3076 3075 3074
2876 2876 2881 2886 2889 2894 2900 2905 2908 2914 2920 2925 2931 2939 2943 2951 2959 2968 2975 2982 2990 2997 3006 3011 3017 3023 3033 3040 3047 3051 3054 3059 3062 3062 3064 3068 3069 3070 3070 3070 3071 3070 3070
2862 2857 2860 2870 2878 2882 2890 2896 2901 2902 2908 2909 2917 2925 2932 2941 2949 2958 2966 2974 2981 2991 2998 3004 3011 3019 3025 3032 3041 3046 3050 3053 3055 3059 3059 3061 3064 3063 3065 3066 3066 3065 3065
2854 2852 2854 2860 2868 2875 2882 2886 2892 2895 2898 2905 2910 2916 2924 2932 2941 2950 2956 2964 2973 2983 2991 2999 3006 3012 3018 3025 3032 3038 3043 3048 3051 3053 3055 3055 3058 3058 3059 3061 3060 3059 3059
2852 2851 2853 2856 2861 2867 2873 2880 2884 2889 2893 2898 2905 2910 2918 2926 2933 2942 2951 2958 2967 2976 2985 2991 2999 3005 3012 3020 3027 3033 3038 3043 3045 3046 3049 3052 3052 3053 3055 3054 3053 3053 3052
Wind_Speed
39 38 39 37 37 36 35 30 29 29 26 24 22 20 18 16 16 16 16 17 15 14 12 12 11 11 13 13 13 14 12 12 11 12 11 11 11 11 11 12 12 13 14
40 40 39 39 39 37 37 34 31 31 29 27 24 22 19 17 17 19 15 15 13 14 16 17 13 12 13 14 14 12 13 13 13 13 13 13 13 13 13 13 14 14 15
42 42 41 41 39 40 40 38 35 34 33 30 28 26 23 21 19 22 20 20 18 18 18 15 15 12 14 13 14 15 14 14 14 14 14 14 14 14 14 14 15 16 16
44 40 43 42 42 41 43 42 37 36 35 32 30 28 26 25 23 23 24 24 22 19 19 18 17 16 15 15 13 14 14 14 14 14 15 15 15 14 14 14 15 15 16
37 44 48 47 41 42 41 43 39 38 36 33 33 30 29 28 25 27 28 28 26 21 21 19 19 17 17 16 14 13 13 13 14 13 13 13 14 14 14 14 14 14 15
37 52 49 47 52 47 41 39 42 38 37 36 35 33 30 30 28 29 31 31 29 25 23 22 21 20 18 18 14 13 14 14 15 14 13 13 14 14 14 15 15 15 15
43 47 50 55 25 46 36 40 37 39 42 42 40 38 34 32 30 31 30 28 28 26 25 23 23 21 18 16 12 14 15 14 15 14 14 14 14 14 15 15 14 14 14
43 47 45 54 46 41 49 48 47 49 44 42 42 37 33 35 35 32 28 30 28 29 28 26 25 23 19 16 14 15 15 16 14 14 13 14 13 13 14 14 13 14 14
42 42 46 47 47 46 45 44 41 42 41 44 42 38 35 34 31 30 34 30 31 31 29 27 25 25 20 17 15 16 16 15 15 14 14 14 13 12 13 15 14 14 15
37 41 44 47 44 56 50 44 44 38 41 39 35 31 31 33 33 34 35 34 35 33 32 28 27 26 21 19 18 18 17 16 15 15 15 14 13 13 12 14 14 14 15
35 40 40 47 40 43 49 45 39 51 37 40 40 35 39 31 33 33 34 32 34 34 34 31 29 28 24 22 19 18 18 16 17 16 15 15 14 13 13 14 15 15 14
31 31 30 32 41 39 39 46 42 45 40 39 39 38 37 33 32 32 29 32 29 31 33 32 31 28 25 24 21 22 19 16 17 17 15 14 14 13 13 13 15 16 15
33 28 32 30 28 41 35 31 39 52 39 44 45 43 38 37 33 32 33 30 32 31 31 28 29 29 27 26 24 23 21 19 18 17 16 15 15 15 14 14 15 16 16
33 34 29 30 27 36 36 30 43 53 63 46 49 38 39 36 32 35 33 33 34 33 30 27 26 28 30 28 25 25 22 20 19 17 16 15 15 16 15 15 15 16 16
43 40 40 37 33 30 30 35 43 36 41 45 37 39 42 41 38 39 36 36 37 36 32 30 28 28 31 27 26 25 23 22 21 19 17 16 15 15 15 15 17 17 17
54 52 51 52 49 46 37 32 37 42 35 31 42 46 46 46 41 43 40 38 40 37 33 27 25 26 30 27 28 26 24 24 22 19 18 16 16 15 15 16 17 17 17
48 57 58 58 52 56 58 52 43 38 44 39 41 38 43 46 44 42 39 41 42 39 35 30 26 28 29 27 27 26 25 24 22 21 19 17 17 17 16 17 17 17 17
33 36 41 43 45 44 50 48 49 47 44 43 44 38 35 39 39 44 41 42 41 39 35 32 29 30 32 31 31 29 25 25 23 21 19 17 17 17 17 17 17 17 17
42 42 40 43 45 46 45 44 46 44 45 45 44 45 48 36 39 47 42 51 42 39 38 33 33 36 32 33 31 30 29 27 23 20 19 18 17 18 17 17 17 16 16
38 43 46 44 46 45 43 41 38 40 52 44 45 45 44 40 41 40 42 45 53 47 42 37 38 38 38 35 29 32 27 24 22 21 19 19 19 18 18 18 17 15 16
43 39 43 48 48 49 47 45 46 43 48 53 50 50 47 41 51 40 42 46 49 51 49 41 37 35 40 28 31 27 27 26 23 21 20 20 19 18 19 18 16 16 17
47 49 39 39 43 44 48 38 45 44 47 49 50 47 51 44 40 47 41 44 46 49 49 42 34 37 28 26 26 24 24 24 22 20 20 20 19 19 19 17 17 17 18
43 53 50 47 39 39 38 31 38 35 47 49 48 43 39 45 43 42 41 36 39 38 39 32 34 29 24 21 22 23 26 22 22 23 21 19 20 20 19 17 17 18 19
29 31 44 50 46 41 37 36 35 27 47 41 35 41 38 38 43 45 42 44 41 37 33 34 33 29 28 24 23 22 21 25 25 22 20 20 20 20 19 18 19 19 20
21 22 23 33 39 37 35 33 35 37 31 36 32 40 36 34 35 41 41 47 41 34 35 38 33 34 31 28 28 29 29 24 21 20 20 20 20 20 18 20 20 20 19
18 19 22 28 33 38 30 33 32 29 30 33 33 35 40 43 42 40 47 42 36 31 35 41 38 36 33 32 31 29 25 22 22 22 20 19 20 20 20 20 20 20 19
Wind_Direction
248 245 244 238 235 234 237 241 237 237 233 230 230 230 238 241 253 260 259 276 273 264 260 258 258 272 285 293 297 300 305 311 316 319 317 314 308 304 299 295 292 290 288
251 245 241 239 239 239 240 242 239 237 233 233 238 238 239 246 255 262 267 267 261 253 262 265 257 268 281 291 296 289 295 307 316 317 314 313 311 309 307 302 298 293 287
247 243 241 239 235 238 239 239 242 237 233 233 236 237 239 246 256 261 259 263 264 271 262 254 260 267 282 286 294 298 305 311 315 312 313 309 311 308 308 306 303 298 293
243 242 242 238 237 232 235 238 238 238 234 234 235 238 242 245 254 258 257 262 264 267 258 258 257 265 279 283 290 298 304 309 310 310 312 314 312 313 313 311 307 303 301
244 252 244 238 232 232 232 234 231 235 234 233 234 237 240 246 249 256 256 255 261 255 248 252 256 265 268 277 286 296 300 304 305 308 309 310 308 311 310 309 308 306 302
266 272 242 249 242 226 236 227 228 230 232 231 232 234 242 250 249 251 252 254 252 248 244 247 254 259 264 268 284 294 297 303 303 304 305 305 309 312 313 313 314 313 312
268 266 267 248 234 226 234 235 235 231 234 230 226 223 229 239 245 251 254 253 245 239 239 242 250 257 265 269 272 282 289 291 293 297 302 308 312 315 315 317 315 313 309
272 266 261 274 241 227 236 224 229 223 225 232 234 226 232 231 248 246 255 251 237 234 235 238 250 252 257 259 266 276 278 281 285 288 297 299 303 312 313 311 313 310 304
276 262 261 269 240 240 236 239 219 221 230 232 227 232 227 235 236 254 250 253 235 231 233 238 244 253 249 254 263 266 265 271 281 290 293 293 297 301 306 309 312 311 308
268 254 255 257 268 265 242 241 245 225 234 231 227 227 230 235 238 255 248 253 240 232 231 233 246 245 245 250 255 256 262 271 276 282 286 291 298 305 312 311 312 312 306
255 272 247 265 238 264 263 252 233 228 232 226 232 228 238 240 242 249 252 249 241 234 232 236 243 242 241 247 252 256 262 269 277 280 284 290 297 304 310 310 309 305 301
251 260 260 260 264 251 278 252 236 231 238 237 232 231 239 241 245 254 255 247 233 237 237 240 244 241 241 247 248 252 256 260 266 272 276 282 289 297 302 304 304 302 301
249 241 249 249 262 253 254 266 233 236 234 232 233 234 239 241 241 246 247 240 235 231 231 236 241 236 242 244 245 250 255 257 263 268 274 281 289 295 299 302 301 299 298
269 247 260 263 248 242 259 263 258 245 233 239 225 237 237 234 238 244 244 232 231 230 228 235 240 240 243 244 244 248 250 253 256 258 262 266 275 283 288 293 295 293 294
263 267 268 262 259 254 238 241 249 254 256 249 231 241 237 237 236 243 238 232 230 233 233 234 234 236 240 240 242 245 244 248 248 251 257 265 271 278 286 290 294 299 300
262 260 267 266 260 260 260 243 240 250 254 252 250 244 246 233 230 238 233 230 230 233 234 234 239 237 240 237 240 241 243 243 247 252 257 264 272 278 284 289 292 296 296
260 259 262 266 265 267 266 258 252 244 245 245 238 247 253 253 242 234 228 228 230 232 234 228 220 228 235 233 231 239 239 238 242 245 251 260 268 273 281 286 289 294 299
257 253 255 257 257 255 258 254 254 253 246 239 240 243 245 253 251 247 231 229 231 232 234 229 227 226 225 227 227 231 231 233 234 239 248 254 263 272 279 285 292 294 298
260 252 249 251 252 252 251 250 250 245 250 242 239 242 239 242 248 248 254 236 226 227 229 226 228 231 221 220 223 230 228 230 230 237 245 252 261 269 275 279 283 289 297
265 258 253 252 249 247 247 250 246 242 234 242 234 236 243 237 240 247 248 243 234 220 227 225 220 228 213 218 221 225 227 228 229 235 244 251 258 268 274 278 282 289 295
266 264 255 252 250 250 254 253 253 242 234 232 240 235 234 234 246 246 252 241 234 218 219 225 222 232 225 208 220 223 220 219 225 233 242 253 259 266 272 275 283 291 290
268 257 256 251 248 247 253 249 249 234 238 231 222 234 230 233 235 237 240 243 240 220 226 223 229 232 201 210 217 214 219 228 231 237 240 247 260 266 268 277 283 285 289
269 254 248 252 252 245 246 242 232 234 230 234 238 233 236 234 236 231 239 233 237 215 215 229 222 196 199 202 206 217 221 220 225 231 240 249 253 260 268 273 279 285 289
280 268 244 242 245 244 240 240 239 244 232 241 231 234 235 226 225 228 224 223 214 205 218 212 189 189 188 188 203 209 216 223 229 234 240 247 253 259 267 275 282 286 288
287 267 240 230 239 233 235 238 239 237 222 230 214 228 217 214 219 225 220 196 201 213 207 190 196 192 188 189 198 212 218 225 233 238 241 246 254 261 268 277 282 282 284
278 249 239 227 229 232 227 231 226 227 236 216 219 231 224 226 228 220 202 207 205 204 207 192 193 193 198 201 206 212 216 225 231 236 244 247 254 260 272 276 277 279 283